STARLINK-31957, 59926

Orbit data source: Space-Track

STARLINK-31957, 59926 is a payload satellite owned by SpaceX/Seattle (US) in LEO that was launched on Sat, 01 Jun 2024 UTC via an FALCON 9 launch vehicle from the Air Force Eastern Test Range (AFETR). Payload-class satellites include a variety of spacecraft equipped with specific instruments for various scientific and technological missions. These include communications satellites like Starlink; space stations such as the ISS; scientific satellites like the Hubble; Earth observation satellites from companies like Planet Labs, Umbra, and HawkEye 360; GPS; miniature CubeSats for education and research; and military/defense satellites.

Loading next visibility...
Identifier
59926, 2024-106E
Orbit
LEO
Country
Flag of USUS
Related business
Manufacturer
SpaceX/Seattle
Mission
Operational Commercial Communications
Bus & Motor
STARLINK V2M, Unknown motor
Mass
730 kg wet, ~700 kg dry
Launch date (UTC)
2024-06-01 (1 year ago)
Launch vehicle
FALCON 9
Launch site
Air Force Eastern Test Range (AFETR)
Object type
Payload
Rocket body
Debris
Shape & HBR
Box + 2 Pan, 17.7 m
Radar Cross Section
33.884 m², Large (>1 m²)

Expand to show TLE details & history
Last TLE update: 1 day ago

TLE from 1 day ago
0 STARLINK-31957
1 59926U 24106E   25307.73250595  .00002778  00000-0  11041-3 0  9991
2 59926  43.0010 323.4902 0001844 281.0136  79.0508 15.27588988 81315
Epoch: 2025-11-03T17:34Z
TLE epoch observation values (Epoch: 2025-11-03T17:34:48.514Z)
Latitude
-0.00001°
Longitude
16.55839°
Altitude
482.558 km
Speed
7.626 km/s
True Right ascension
21h 33m 57s
True Declination
0° 00' 00"
Sunlit
Object was in daylight at epoch
Visualization orbit readout
Latitude
Unknown
Longitude
Unknown
Altitude
Unknown
Speed
Unknown
Apparent Right ascension
Unknown
Apparent Declination
Unknown
Sunlit
N/A
Visualization observer readout
Local Sidereal Time
19:51:08
Azimuth
Unknown
Elevation
Unknown
Doppler factor
Unknown
Orbital elements
Apogee altitude
486.233 km
Perigee altitude
483.702 km
Semi-major axis
6,863.104 km
Eccentricity
0.00018
Inclination
43.001°
RAAN
323.4902°
Arg. of periapsis
281.0136°
True anomaly
79.07155°
Mean anomaly
79.0508°
Eccentric anomaly
79.06117°
Mean motion
3.81735 °/min
Orbital period
94.31 mins
BSTAR
0.00011041
Loading maneuver chart data...
Computing Atmospheric mass density...
Loading historical data...
Loading historical data...
Loading historical data...
Loading historical data...
Loading historical data...
Loading historical data...
Loading historical data...

Documentation

Showing up to 5 results
|